Regional Weather Roundup
Issued by NWS

Home | Current Version | Previous Version | Graphics & Text | Print | Product List | Glossary On
Versions: 1 2 3 4 5 6 7 8 9 10 11 12 13 14 15 16 17 18 19 20 21 22 23 24 25 26 27 28 29 30 31 32 33 34 35 36 37 38 39 40 41 42 43 44 45 46 47 48 49
000
ASUS45 KBOI 221710
RWRID
WEATHER ROUNDUP FOR IDAHO
NATIONAL WEATHER SERVICE BOISE ID
1100 AM MDT TUE JUL 22 2014

NOTE: "FAIR" INDICATES FEW OR NO CLOUDS BELOW 12000 FEET
WITH NO SIGNIFICANT WEATHER AND/OR OBSTRUCTIONS TO VISIBILITY

IDZ012-014-221800-
SOUTHWEST IDAHO


CITY           SKY/WX    TMP DP  RH WIND       PRES   REMARKS
BOISE          SUNNY     82  51  34 SE8       30.15S
CALDWELL       SUNNY     79  54  41 E5        30.16S
MOUNTAIN HOME  MOSUNNY   79  55  42 SE9       30.15F
$$

IDZ016-017-221800-
SOUTHCENTRAL IDAHO


CITY           SKY/WX    TMP DP  RH WIND       PRES   REMARKS
BURLEY         MOSUNNY   76  56  49 VRB7      30.22S
JEROME         MOSUNNY   78  54  43 N3        30.23S
TWIN FALLS     MOSUNNY   77  52  41 N7        30.23S
$$

IDZ019>023-221800-
SOUTHEAST IDAHO


CITY           SKY/WX    TMP DP  RH WIND       PRES   REMARKS
IDAHO FALLS    MOSUNNY   75  54  47 NW5       30.29S
POCATELLO      SUNNY     78  55  44 N8        30.26F
REXBURG        SUNNY     73  51  46 CALM      30.30S
$$

IDZ006-010-011-018-031-032-221800-
CENTRAL IDAHO MOUNTAINS


CITY           SKY/WX    TMP DP  RH WIND       PRES   REMARKS
MCCALL         SUNNY     71  49  45 S13       30.24S
HAILEY         MOSUNNY   72  52  49 SE6       30.32S
STANLEY          N/A     72  46  39 VRB5      30.34F
SALMON         SUNNY     79  48  34 CALM      30.15F
CHALLIS        MOSUNNY   73  49  42 N3        30.25F
$$

IDZ002-004-006-007-026-221800-
NORTHERN IDAHO


CITY           SKY/WX    TMP DP  RH WIND       PRES   REMARKS
LEWISTON       SUNNY     78  46  32 VRB3      30.06S
LOWELL           N/A     75  50  41 N3        30.05F
COEUR D`ALENE  CLOUDY    59  55  88 MISG      30.15S
MULLAN PASS    CLOUDY    52  43  71 E6        30.26S
$$


USA.gov is the U.S. government's official web portal to all federal, state and local government web resources and services.